RED55 NZQN-NZCH

Flight info

Callsign RED55
Flight time N/A
Altitude 15000
Route TIMJO Y153 DOPKI
Aircraft C160/M-SDFGHIRTUY/S

Departure

Time 2026-05-08 02:21
Airport Queenstown Airport (NZQN)

Arrival

Time N/A
Airport Christchurch International Airport (NZCH)
Time Latitude Longitude Altitude Speed Heading
2026-05-08 01:19 -45.02049 168.73871 1172 ft 0 kts 290°
2026-05-08 02:10 -45.02049 168.73870 1172 ft 0 kts 287°
2026-05-08 02:10 -45.02050 168.73861 1183 ft 2 kts 267°
2026-05-08 02:11 -45.02054 168.73849 1155 ft 1 kts 227°
2026-05-08 02:11 -45.02058 168.73847 1167 ft 1 kts 194°
2026-05-08 02:11 -45.02063 168.73849 1168 ft 1 kts 167°
2026-05-08 02:11 -45.02067 168.73854 1169 ft 1 kts 134°
2026-05-08 02:12 -45.02070 168.73868 1169 ft 3 kts 106°
2026-05-08 02:12 -45.02069 168.73908 1159 ft 6 kts 80°
2026-05-08 02:12 -45.02060 168.73967 1166 ft 0 kts 75°
2026-05-08 02:12 -45.02060 168.73968 1166 ft 1 kts 74°
2026-05-08 02:13 -45.02056 168.73993 1170 ft 4 kts 82°
2026-05-08 02:13 -45.02053 168.74016 1172 ft 0 kts 78°
2026-05-08 02:14 -45.02050 168.74030 1170 ft 3 kts 66°
2026-05-08 02:14 -45.02030 168.74064 1172 ft 6 kts 34°
2026-05-08 02:14 -45.01990 168.74088 1172 ft 5 kts 22°
2026-05-08 02:15 -45.01958 168.74106 1174 ft 6 kts 22°
2026-05-08 02:15 -45.01919 168.74154 1174 ft 9 kts 59°
2026-05-08 02:15 -45.01898 168.74247 1173 ft 11 kts 78°
2026-05-08 02:15 -45.01878 168.74366 1176 ft 15 kts 75°
2026-05-08 02:16 -45.01848 168.74535 1172 ft 21 kts 76°
2026-05-08 02:16 -45.01815 168.74748 1170 ft 24 kts 79°
2026-05-08 02:16 -45.01778 168.74985 1168 ft 25 kts 76°
2026-05-08 02:16 -45.01737 168.75226 1181 ft 26 kts 75°
2026-05-08 02:17 -45.01714 168.75470 1189 ft 24 kts 81°
2026-05-08 02:17 -45.01682 168.75680 1191 ft 17 kts 76°
2026-05-08 02:17 -45.01667 168.75803 1189 ft 12 kts 78°
2026-05-08 02:17 -45.01646 168.75816 1186 ft 2 kts 308°
2026-05-08 02:18 -45.01646 168.75800 1186 ft 2 kts 259°
2026-05-08 02:18 -45.01654 168.75762 1189 ft 6 kts 253°
2026-05-08 02:18 -45.01654 168.75759 1188 ft 0 kts 253°
2026-05-08 02:20 -45.01697 168.75494 1189 ft 65 kts 258°
2026-05-08 02:21 -45.01846 168.74559 1171 ft 123 kts 258°
2026-05-08 02:21 -45.02067 168.73284 1370 ft 144 kts 252°
2026-05-08 02:21 -45.02394 168.71850 1654 ft 165 kts 253°
2026-05-08 02:21 -45.02645 168.70279 2216 ft 168 kts 250°
2026-05-08 02:22 -45.03222 168.68753 2513 ft 183 kts 233°
2026-05-08 02:22 -45.03973 168.67256 2786 ft 191 kts 235°
2026-05-08 02:22 -45.04702 168.65688 3022 ft 197 kts 235°
2026-05-08 02:22 -45.05492 168.64023 3057 ft 211 kts 236°
2026-05-08 02:23 -45.06304 168.62231 3059 ft 220 kts 237°
2026-05-08 02:23 -45.07121 168.60426 3412 ft 209 kts 237°
2026-05-08 02:23 -45.07787 168.58671 3966 ft 197 kts 247°
2026-05-08 02:23 -45.08238 168.56890 4520 ft 188 kts 250°
2026-05-08 02:24 -45.08663 168.55185 5069 ft 180 kts 250°
2026-05-08 02:24 -45.09087 168.53555 5633 ft 173 kts 250°
2026-05-08 02:24 -45.09515 168.51993 6182 ft 167 kts 250°
2026-05-08 02:24 -45.09943 168.50527 6717 ft 160 kts 250°
2026-05-08 02:25 -45.10377 168.49105 7223 ft 158 kts 250°
2026-05-08 02:25 -45.10824 168.47668 7631 ft 161 kts 254°
2026-05-08 02:25 -45.10836 168.46145 7962 ft 155 kts 296°
2026-05-08 02:25 -45.10097 168.45139 8345 ft 150 kts 339°
2026-05-08 02:26 -45.09091 168.44787 8834 ft 149 kts 344°
2026-05-08 02:26 -45.08089 168.44424 9299 ft 149 kts 342°
2026-05-08 02:26 -45.07062 168.44183 9680 ft 153 kts 357°
2026-05-08 02:26 -45.05998 168.44362 10102 ft 154 kts
2026-05-08 02:27 -45.04936 168.44561 10518 ft 154 kts
2026-05-08 02:27 -45.03876 168.44751 10939 ft 154 kts
2026-05-08 02:27 -45.02832 168.44934 11355 ft 152 kts
2026-05-08 02:27 -45.01788 168.45112 11774 ft 151 kts
2026-05-08 02:28 -45.00743 168.45299 12189 ft 153 kts
2026-05-08 02:28 -44.99675 168.45478 12555 ft 156 kts
2026-05-08 02:28 -44.98594 168.45706 12928 ft 160 kts 10°
2026-05-08 02:28 -44.97671 168.46673 13247 ft 175 kts 43°
2026-05-08 02:29 -44.97043 168.48161 13622 ft 176 kts 48°
2026-05-08 02:29 -44.96433 168.49666 13961 ft 176 kts 47°
2026-05-08 02:29 -44.95809 168.51135 14310 ft 172 kts 44°
2026-05-08 02:29 -44.95163 168.52567 14660 ft 172 kts 42°
2026-05-08 02:30 -44.94375 168.53738 14970 ft 171 kts 34°
2026-05-08 02:30 -44.93597 168.55179 14968 ft 195 kts 44°
2026-05-08 02:30 -44.92822 168.56844 14970 ft 211 kts 45°
2026-05-08 02:30 -44.91987 168.58609 14965 ft 221 kts 45°
2026-05-08 02:31 -44.91113 168.60424 14958 ft 228 kts 45°
2026-05-08 02:31 -44.90212 168.62278 14960 ft 230 kts 45°
2026-05-08 02:31 -44.89306 168.64144 14942 ft 231 kts 46°
2026-05-08 02:31 -44.88404 168.66006 14953 ft 230 kts 45°
2026-05-08 02:32 -44.87500 168.67879 14954 ft 232 kts 46°
2026-05-08 02:32 -44.86590 168.69759 14952 ft 232 kts 45°
2026-05-08 02:32 -44.85501 168.71299 14958 ft 221 kts 28°
2026-05-08 02:32 -44.84228 168.72496 14951 ft 221 kts 25°
2026-05-08 02:33 -44.82955 168.73746 14950 ft 225 kts 30°
2026-05-08 02:33 -44.81826 168.75308 14939 ft 230 kts 41°
2026-05-08 02:33 -44.80880 168.77142 14948 ft 232 kts 46°
2026-05-08 02:33 -44.79958 168.78998 14940 ft 230 kts 44°
2026-05-08 02:34 -44.79002 168.80766 14946 ft 225 kts 43°
2026-05-08 02:34 -44.78049 168.82510 14949 ft 224 kts 44°
2026-05-08 02:34 -44.77118 168.84276 14941 ft 225 kts 44°
2026-05-08 02:34 -44.76190 168.86027 14937 ft 222 kts 43°
2026-05-08 02:35 -44.75277 168.87727 14962 ft 215 kts 43°
2026-05-08 02:35 -44.74373 168.89409 14952 ft 216 kts 43°
2026-05-08 02:35 -44.73465 168.91109 14943 ft 218 kts 43°
2026-05-08 02:35 -44.72557 168.92811 14942 ft 218 kts 43°
2026-05-08 02:36 -44.71660 168.94483 14944 ft 217 kts 43°
2026-05-08 02:36 -44.70753 168.96180 14946 ft 217 kts 43°
2026-05-08 02:36 -44.69837 168.97882 14950 ft 219 kts 43°
2026-05-08 02:36 -44.69027 168.99735 14928 ft 229 kts 57°
2026-05-08 02:37 -44.68427 169.01814 14952 ft 230 kts 57°
2026-05-08 02:37 -44.67777 169.03877 14949 ft 231 kts 55°
2026-05-08 02:37 -44.67103 169.05930 14946 ft 232 kts 56°
2026-05-08 02:37 -44.66445 169.08007 14950 ft 232 kts 56°
2026-05-08 02:38 -44.65793 169.10079 14951 ft 231 kts 56°
2026-05-08 02:38 -44.65140 169.12133 14951 ft 230 kts 56°
2026-05-08 02:38 -44.64500 169.14152 14947 ft 229 kts 56°
2026-05-08 02:38 -44.63849 169.16190 14942 ft 229 kts 56°
2026-05-08 02:39 -44.63201 169.18229 14939 ft 229 kts 56°
2026-05-08 02:39 -44.62555 169.20270 14937 ft 228 kts 56°
2026-05-08 02:39 -44.61908 169.22305 14934 ft 228 kts 56°
2026-05-08 02:39 -44.61262 169.24336 14939 ft 228 kts 56°
2026-05-08 02:40 -44.60608 169.26367 14943 ft 228 kts 55°
2026-05-08 02:40 -44.59961 169.28394 14940 ft 228 kts 56°
2026-05-08 02:40 -44.59297 169.30465 14933 ft 237 kts 56°
2026-05-08 02:40 -44.58615 169.32593 14941 ft 242 kts 56°